sat.trackr.live / text

‹ back to catalog

QIANFAN-205

NORAD 69804 · 2026-153E

PAYLOAD ACTIVE UNKNOWN

§ Identity

Operator
Country
PRC
Launch date
2026-07-04
Launch site
TAISC
Launch vehicle
Mass (kg)
RCS (m²)

External: N2YO · Heavens-Above · Gunter

§ Orbital elements

Epoch: 2026-09-19T19:02:23.534016Z

Period
102.95 min
Inclination
88.9971°
Eccentricity
0.0003424
Mean motion
13.98780198 rev/d
Perigee alt
895.5 km
Apogee alt
900.5 km
Semi-major
7,276.2 km
B*
-1.3466e+0
RAAN
351.5556°
Arg perigee
20.2703°
Mean anomaly
339.8610°
Rev number
1,094

§ Raw data

QIANFAN-2051 69804U 26153E   26262.79332794 -.01794648  00000+0 -13466+1 0  99962 69804  88.9971 351.5556 0003424  20.2703 339.8610 13.98780198 10946

JSON: /api/v1/satellites/69804 · /tle

For live sub-satellite position, see the globe view (requires WebGL).

§ Visibility from observer

Set your observer location to see the next 7 days of passes ≥ 10°. The values pass through the URL so the page stays shareable.

No JS? Fill the form by hand. The geolocation button needs JavaScript.